Wind_Speed
39 40 40 41 44 46 46 47 48 49 51 51 50 51 51 53 53 54 55 55 58 57 59 61 60 61 62 60 58 56 53 52 52 48 46 45 46 42 44 41 39 39 47
37 39 41 41 42 43 44 43 43 42 42 41 41 43 45 47 48 47 48 50 53 55 56 59 59 59 60 60 58 58 57 55 56 53 48 44 45 43 40 40 38 37 37
39 42 42 41 42 42 40 39 38 37 40 41 40 41 42 44 47 50 53 56 59 62 64 66 66 66 65 65 64 63 61 62 61 57 53 48 46 47 45 42 40 39 36
41 41 40 39 39 38 38 34 35 37 35 38 40 44 47 50 53 56 59 63 66 68 70 71 72 72 71 70 70 70 69 70 70 66 61 53 51 48 48 47 44 42 39
39 37 36 35 34 34 32 32 33 33 37 41 44 47 53 58 62 66 70 72 74 76 77 77 77 77 78 78 77 75 73 72 72 72 67 59 53 52 52 48 47 44 42
36 34 32 31 30 30 28 29 32 36 40 44 50 55 60 64 67 70 72 72 73 74 76 78 79 79 76 75 78 77 76 76 75 76 73 64 56 50 51 49 51 47 43
33 31 29 27 27 26 27 30 33 38 44 49 55 60 60 62 65 66 69 74 77 77 74 70 69 67 67 69 72 73 72 72 74 78 76 69 56 50 48 49 52 50 43
32 29 26 25 24 26 28 31 35 41 48 53 55 55 55 57 65 66 65 63 61 55 51 51 52 53 53 53 60 66 66 67 67 68 72 65 62 48 49 51 50 47 44
28 25 25 23 24 25 28 32 38 44 50 51 50 48 53 56 54 55 51 49 45 39 36 35 38 41 46 51 52 56 59 61 63 59 63 69 62 52 52 51 47 44 42
25 25 25 23 22 23 29 33 40 46 47 44 43 48 42 47 46 41 37 34 31 29 27 28 25 27 30 34 39 52 57 51 48 56 55 63 61 57 54 50 46 43 42
27 27 22 21 21 25 29 35 40 42 41 39 41 43 32 36 33 31 30 27 25 23 21 20 20 20 21 24 27 30 39 48 60 58 52 46 60 60 55 52 45 40 44
29 21 20 20 21 26 30 35 37 39 39 41 34 34 27 31 30 26 28 23 21 18 17 17 17 19 17 23 23 21 28 39 50 51 47 44 55 57 56 54 48 34 38
24 20 19 21 22 26 28 32 35 37 34 32 28 30 26 28 29 28 31 27 26 25 24 18 20 19 18 17 13 11 19 29 35 40 40 37 44 48 49 52 50 50 48
21 20 17 21 22 25 26 29 32 32 31 29 24 25 27 31 32 31 32 29 26 25 17 18 16 12 12 14 16 15 16 21 27 32 34 38 45 46 49 54 56 52 46
21 16 17 20 22 23 23 27 30 29 27 26 22 25 24 23 26 32 29 24 22 25 19 13 9 8 9 6 6 8 16 24 29 31 31 35 39 42 47 53 54 51 51
17 16 19 19 22 20 21 23 27 26 24 23 18 21 24 27 27 30 29 22 21 23 23 19 22 17 8 9 1 5 14 17 23 29 27 36 41 44 48 52 50 50 48
15 16 19 20 20 18 19 21 25 23 21 22 17 17 23 25 26 26 27 30 28 29 32 19 13 14 14 7 9 9 14 13 23 20 30 34 36 39 45 44 44 45 42
14 17 19 18 17 18 18 19 20 21 19 19 15 15 18 20 23 23 27 31 34 34 32 23 15 15 9 11 10 11 13 14 19 15 26 27 30 34 35 36 39 40 42
13 15 16 16 17 18 17 17 18 19 18 17 15 14 16 17 15 18 19 24 31 31 26 12 5 6 9 6 7 9 11 22 11 11 18 26 29 29 35 35 38 41 40
13 14 14 14 15 16 17 18 18 16 16 18 16 16 16 16 16 16 18 19 22 26 23 21 15 7 3 3 1 9 20 21 14 12 12 26 29 31 32 28 40 47 50
13 14 15 16 18 18 19 17 16 16 16 17 17 14 14 17 19 18 20 17 11 15 11 22 22 13 5 3 9 14 16 19 22 20 16 15 21 37 38 45 48 43 38
15 15 16 17 19 20 20 19 19 17 16 16 16 15 14 14 16 17 17 14 11 6 10 9 13 10 6 7 8 17 25 21 19 34 37 30 27 24 32 38 39 39 36
16 17 18 19 20 21 22 22 21 20 18 17 17 17 14 14 15 16 16 13 11 6 2 1 8 6 8 11 12 8 16 14 17 21 20 23 28 27 26 29 29 28 29
19 20 20 21 21 22 22 23 23 23 22 20 19 20 20 16 15 17 18 19 14 13 8 6 9 7 4 4 2 4 2 9 16 16 18 7 20 23 25 26 26 26 26
22 23 24 25 25 25 24 23 23 24 24 24 22 20 21 21 19 18 20 21 22 20 19 18 15 14 10 8 9 11 11 10 10 14 19 21 21 21 23 25 27 28 28
24 25 26 27 28 28 28 28 28 27 26 26 27 26 24 22 24 22 23 24 26 27 26 25 27 24 19 15 16 15 14 16 17 16 16 18 19 21 21 22 24 25 25
Wind_Direction
268 272 274 275 275 274 273 273 272 270 271 273 272 270 270 271 272 273 272 273 274 273 272 273 275 275 274 274 272 270 268 272 272 270 270 269 271 263 263 265 267 266 262
273 278 277 277 278 278 278 275 277 277 277 276 276 278 278 276 276 277 277 274 272 271 270 269 270 269 270 268 267 268 267 268 267 265 265 267 267 267 260 263 266 268 270
276 279 281 279 278 278 278 278 280 281 284 283 281 281 280 277 276 276 276 275 274 273 272 271 271 270 270 269 268 267 266 265 265 264 263 260 261 260 258 261 261 261 263
276 277 277 277 275 274 275 275 279 281 280 284 285 285 285 284 282 280 278 277 274 272 271 270 269 268 267 266 265 264 262 263 263 263 262 257 255 257 258 260 261 259 262
278 277 279 276 275 276 276 280 284 286 289 289 288 289 290 292 290 288 286 285 283 281 279 276 272 269 267 264 261 260 259 259 260 262 262 258 256 255 256 255 257 256 253
279 281 277 275 275 276 281 287 287 289 290 293 295 295 293 291 291 289 288 285 283 279 276 274 272 270 267 264 261 257 254 252 254 257 258 258 256 253 252 251 253 252 251
283 282 279 275 277 279 284 286 289 292 294 296 299 298 297 298 295 293 292 289 286 283 280 276 269 265 265 266 259 253 250 249 246 247 253 254 250 246 248 248 249 250 250
281 278 275 277 275 279 285 288 292 297 302 303 303 307 306 306 306 305 301 296 292 284 277 272 268 266 267 266 256 246 242 240 240 240 244 245 244 241 241 242 244 245 243
274 273 273 270 272 280 287 293 301 304 305 309 316 314 318 318 314 309 301 298 288 279 276 275 275 273 270 262 253 248 241 236 234 232 234 235 233 229 236 237 239 242 243
271 270 266 268 272 282 291 302 303 306 314 324 319 325 329 339 332 326 322 317 304 293 287 285 287 286 279 275 261 246 240 236 228 234 230 227 223 220 228 231 229 229 229
267 264 261 265 277 289 298 301 307 316 328 322 327 330 337 349 338 337 331 326 319 314 308 297 284 286 287 274 264 255 239 225 212 221 221 223 215 213 217 224 217 230 225
262 249 256 268 280 294 301 309 318 326 332 331 332 336 333 335 338 342 350 345 341 338 330 319 305 292 286 282 285 253 235 220 218 214 215 217 210 213 214 213 207 209 219
248 243 254 270 284 300 309 318 326 330 336 336 342 339 330 328 330 325 330 333 323 321 335 319 305 290 279 270 281 246 217 205 206 211 211 214 210 209 208 205 205 207 209
237 244 258 278 292 302 313 323 328 333 332 339 338 335 334 335 334 333 333 336 335 338 345 329 317 305 286 274 265 249 216 193 197 198 207 208 203 201 201 200 202 201 205
245 248 266 286 292 301 316 327 332 334 333 348 340 346 344 351 2 5 4 0 357 16 21 33 347 333 345 334 258 225 202 199 187 191 194 198 199 198 199 199 200 200 206
248 260 274 287 292 301 315 324 336 335 332 351 339 355 3 7 5 17 21 30 17 13 24 15 24 27 6 322 59 149 159 184 189 185 197 194 195 196 197 196 196 199 204
255 265 278 285 288 296 309 324 334 334 330 349 345 350 358 4 11 10 13 19 28 20 15 29 357 15 27 81 137 134 141 163 178 187 176 187 190 191 194 194 197 199 202
271 278 282 283 283 290 303 318 330 332 326 333 345 346 352 7 9 17 13 11 13 15 19 17 56 27 41 56 130 167 108 166 169 174 175 188 195 193 194 198 197 199 197
272 275 277 282 284 286 294 307 316 328 324 319 331 332 339 350 8 17 19 8 15 15 20 31 21 43 34 74 145 153 149 164 162 172 168 177 186 193 194 197 205 215 218
269 274 280 286 291 296 296 295 299 313 322 315 310 313 324 326 349 359 1 6 25 31 25 23 2 329 240 188 287 155 169 192 211 220 229 209 196 208 217 206 214 202 191
270 274 282 289 292 295 295 299 297 296 302 315 309 304 304 309 315 318 326 337 11 36 24 4 3 7 306 153 149 125 119 136 144 143 153 162 207 228 193 177 160 150 150
281 283 286 290 293 295 295 295 294 292 295 294 305 304 294 284 292 302 312 320 330 21 28 41 31 44 74 21 130 146 135 130 148 153 148 148 156 149 152 152 152 157 158
296 295 295 293 291 291 292 293 293 293 289 287 286 288 298 284 273 277 285 295 290 302 348 30 138 245 9 21 20 59 103 102 111 112 127 136 133 137 145 147 150 155 162
302 300 297 294 293 291 290 291 291 292 291 289 283 282 280 279 271 264 263 267 265 254 253 252 226 208 291 13 279 272 192 140 142 136 131 128 153 156 156 160 163 169 170
300 299 298 298 297 294 292 289 286 287 289 288 285 281 278 277 270 263 256 254 257 257 242 253 240 229 223 213 217 207 203 203 195 177 171 172 173 178 177 178 176 177 179
305 304 302 301 299 298 295 293 290 286 283 282 282 281 276 271 268 264 259 250 246 248 246 246 256 244 229 222 220 220 210 213 205 201 200 200 199 197 200 199 196 194 196
Height
5722 5721 5719 5717 5715 5714 5712 5711 5709 5708 5706 5704 5702 5701 5699 5697 5695 5694 5693 5689 5689 5688 5688 5688 5688 5688 5690 5691 5692 5694 5696 5698 5703 5706 5709 5713 5714 5718 5721 5722 5726 5728 5730
5713 5712 5709 5707 5705 5703 5700 5698 5696 5695 5693 5692 5690 5689 5687 5686 5683 5680 5677 5676 5675 5674 5673 5674 5675 5674 5675 5676 5677 5679 5681 5683 5688 5694 5696 5701 5704 5706 5710 5712 5716 5717 5719
5703 5701 5699 5696 5694 5692 5690 5688 5686 5685 5683 5681 5679 5677 5675 5672 5670 5667 5664 5662 5660 5658 5656 5655 5655 5654 5656 5657 5659 5662 5663 5665 5670 5675 5682 5688 5692 5695 5699 5702 5705 5709 5711
5693 5691 5688 5687 5685 5683 5682 5680 5678 5676 5674 5672 5668 5664 5661 5657 5653 5650 5647 5644 5641 5639 5636 5634 5633 5633 5635 5636 5637 5641 5644 5646 5649 5655 5663 5672 5677 5681 5685 5690 5694 5698 5699
5682 5680 5678 5677 5675 5673 5672 5670 5668 5666 5663 5660 5656 5651 5646 5641 5635 5629 5624 5618 5614 5610 5606 5605 5605 5606 5608 5610 5612 5618 5621 5626 5631 5634 5643 5653 5661 5667 5672 5679 5683 5686 5689
5673 5671 5669 5667 5666 5665 5663 5661 5659 5656 5652 5648 5643 5637 5632 5625 5617 5609 5601 5594 5588 5583 5579 5575 5573 5573 5576 5578 5583 5589 5596 5603 5609 5614 5622 5633 5645 5652 5658 5666 5671 5674 5679
5662 5660 5659 5658 5657 5656 5655 5653 5650 5646 5642 5636 5630 5623 5614 5604 5593 5583 5574 5565 5558 5551 5547 5545 5544 5546 5547 5549 5553 5559 5567 5576 5585 5594 5602 5614 5627 5637 5646 5653 5657 5663 5671
5653 5652 5651 5650 5649 5649 5647 5644 5641 5636 5630 5624 5616 5605 5595 5584 5573 5560 5548 5538 5529 5523 5519 5519 5520 5521 5521 5521 5523 5529 5540 5550 5561 5572 5584 5596 5610 5624 5632 5638 5645 5651 5657
5645 5644 5644 5643 5643 5642 5639 5636 5631 5626 5620 5610 5600 5590 5581 5568 5554 5540 5528 5519 5513 5509 5505 5503 5502 5502 5500 5500 5503 5509 5517 5528 5540 5550 5562 5574 5591 5607 5617 5624 5631 5640 5648
5637 5637 5637 5636 5636 5634 5631 5627 5623 5616 5608 5598 5589 5581 5570 5557 5544 5530 5519 5511 5504 5501 5497 5494 5492 5490 5488 5486 5485 5490 5500 5515 5526 5535 5543 5555 5575 5591 5602 5613 5618 5628 5636
5629 5630 5630 5630 5629 5627 5624 5620 5614 5606 5597 5589 5581 5573 5562 5552 5540 5529 5518 5509 5502 5496 5492 5489 5486 5485 5483 5481 5478 5480 5487 5498 5511 5519 5530 5544 5558 5574 5586 5599 5609 5617 5625
5622 5623 5624 5624 5623 5620 5617 5611 5604 5596 5590 5582 5574 5565 5556 5547 5537 5528 5518 5509 5502 5496 5491 5486 5482 5480 5478 5475 5473 5474 5477 5484 5496 5509 5522 5535 5547 5562 5574 5587 5600 5605 5617
5616 5617 5617 5618 5616 5613 5608 5603 5596 5590 5583 5576 5569 5561 5552 5543 5534 5525 5517 5509 5501 5493 5487 5483 5479 5476 5474 5473 5471 5471 5474 5481 5493 5506 5518 5530 5540 5553 5565 5577 5589 5599 5608
5610 5611 5611 5611 5608 5605 5601 5596 5589 5584 5579 5573 5565 5558 5549 5539 5531 5522 5514 5508 5500 5491 5484 5479 5477 5476 5474 5473 5472 5474 5478 5484 5492 5502 5514 5524 5534 5545 5557 5568 5579 5590 5600
5605 5604 5605 5604 5602 5599 5595 5589 5584 5579 5574 5569 5562 5555 5548 5540 5531 5521 5514 5507 5501 5494 5485 5483 5481 5479 5477 5476 5475 5477 5481 5487 5493 5501 5511 5522 5532 5542 5552 5562 5573 5584 5595
5599 5599 5599 5598 5595 5592 5589 5585 5580 5575 5570 5566 5560 5555 5548 5538 5530 5526 5519 5511 5506 5500 5496 5491 5486 5485 5483 5482 5482 5483 5487 5493 5499 5506 5511 5520 5529 5538 5548 5558 5570 5580 5591
5593 5594 5593 5592 5589 5586 5584 5581 5576 5571 5567 5563 5559 5554 5549 5542 5533 5527 5524 5519 5512 5506 5498 5495 5494 5493 5492 5491 5493 5494 5497 5501 5506 5501 5517 5523 5531 5541 5551 5559 5569 5579 5589
5588 5588 5587 5586 5584 5581 5579 5577 5573 5569 5564 5562 5558 5554 5549 5544 5539 5533 5526 5521 5517 5511 5506 5502 5501 5501 5500 5500 5501 5503 5505 5509 5512 5517 5525 5530 5537 5545 5552 5560 5569 5578 5586
5584 5583 5583 5581 5579 5577 5575 5573 5570 5566 5561 5559 5557 5554 5550 5546 5543 5538 5534 5528 5524 5518 5515 5510 5507 5509 5507 5507 5508 5510 5512 5515 5518 5523 5528 5535 5541 5547 5554 5561 5567 5574 5581
5580 5579 5578 5577 5575 5573 5570 5568 5566 5564 5560 5556 5553 5551 5549 5546 5543 5540 5538 5535 5532 5526 5523 5517 5512 5514 5514 5515 5514 5515 5517 5520 5521 5524 5528 5534 5541 5548 5552 5558 5563 5569 5576
5577 5576 5574 5572 5571 5568 5567 5564 5562 5560 5557 5553 5551 5548 5546 5544 5542 5541 5539 5537 5537 5534 5531 5524 5520 5519 5517 5519 5519 5518 5521 5523 5525 5529 5533 5537 5542 5544 5548 5553 5561 5569 5578
5572 5571 5570 5568 5566 5564 5562 5559 5557 5555 5553 5550 5548 5546 5544 5542 5540 5539 5538 5537 5537 5539 5537 5534 5530 5529 5528 5527 5526 5527 5527 5529 5531 5534 5537 5542 5547 5553 5557 5562 5566 5572 5581
5567 5566 5564 5563 5561 5559 5557 5555 5553 5550 5548 5546 5544 5542 5541 5539 5538 5537 5536 5536 5536 5537 5538 5538 5539 5535 5534 5534 5537 5536 5537 5538 5539 5543 5546 5548 5552 5556 5562 5566 5570 5577 5583
5562 5560 5559 5557 5555 5554 5552 5549 5547 5545 5543 5541 5540 5538 5536 5535 5534 5534 5533 5533 5534 5535 5537 5539 5538 5539 5540 5541 5541 5542 5543 5543 5546 5549 5553 5561 5559 5562 5565 5570 5575 5580 5585
5556 5554 5552 5550 5548 5547 5545 5543 5541 5539 5537 5534 5533 5533 5531 5529 5529 5528 5528 5528 5528 5529 5532 5534 5537 5538 5539 5540 5541 5544 5545 5546 5549 5551 5555 5558 5560 5564 5568 5572 5576 5580 5585
5550 5548 5546 5543 5541 5539 5537 5535 5533 5531 5530 5528 5526 5524 5524 5524 5522 5521 5521 5522 5522 5523 5524 5526 5529 5533 5534 5537 5539 5541 5544 5549 5552 5553 5555 5557 5560 5565 5569 5573 5577 5582 5585